Wind_Speed
19 18 9 2 3 5 2 1 3 4 4 4 3 11 8 4 1 3 12 15 25 22 17 15 15 14 16 16 15 15 20 20 17 17 18 20 20 19 18 20 21 18 17 16 17 19 21 23 22
19 15 1 2 4 2 4 2 5 4 7 10 9 5 6 2 2 11 14 24 25 22 19 17 15 15 17 17 15 15 19 20 17 18 16 18 19 18 19 19 19 18 19 19 19 20 20 21 19
17 7 3 4 3 4 5 4 6 3 6 3 5 5 5 4 7 8 18 24 23 21 19 18 17 18 17 17 15 15 19 18 17 15 18 18 19 18 17 19 19 19 18 17 18 19 19 20 19
6 3 4 3 4 2 7 7 6 6 3 7 6 7 3 3 10 13 28 25 22 21 20 19 18 17 17 17 15 15 18 17 15 15 17 18 17 17 19 19 19 18 17 16 15 16 17 19 19
1 2 3 0 2 2 2 5 5 5 4 4 4 3 3 3 20 29 28 24 24 22 21 20 18 17 19 16 15 15 16 17 16 16 17 18 16 16 17 18 17 15 16 15 15 16 15 16 16
3 3 3 2 1 3 2 5 6 4 3 5 7 5 1 19 32 29 26 24 22 23 22 22 20 19 19 16 15 14 15 16 16 16 16 16 16 15 14 16 15 14 14 13 13 13 14 13 12
4 4 4 3 4 3 5 6 8 7 6 3 10 5 2 9 30 29 25 22 21 22 23 22 21 20 20 18 14 13 14 15 15 15 14 15 14 15 15 11 10 11 12 11 11 12 11 10 8
3 4 4 3 6 4 3 4 4 7 3 6 9 7 7 19 33 29 25 22 21 20 20 20 21 20 19 17 14 13 13 13 13 14 14 14 14 14 13 12 9 9 9 7 8 8 9 9 8
2 4 3 5 7 5 3 5 1 2 6 3 2 7 16 32 33 30 27 24 22 20 20 21 21 19 18 17 15 13 13 13 13 13 13 12 12 11 11 9 6 5 6 5 6 6 6 7 7
3 3 7 5 5 7 6 5 7 5 3 5 4 6 33 30 32 27 24 25 25 23 21 20 21 21 19 18 16 14 13 12 13 13 13 11 10 8 8 7 4 4 4 3 3 5 5 3 4
1 4 3 3 2 8 10 5 2 10 2 6 11 17 21 22 23 25 22 29 30 26 22 21 19 19 19 19 17 15 13 12 12 11 9 8 7 6 4 5 4 3 3 3 4 5 2 1 1
4 5 4 2 4 5 10 8 4 2 6 11 16 23 22 16 19 23 23 27 27 27 24 21 20 19 18 17 17 15 14 13 12 10 8 8 6 6 5 5 4 3 2 2 2 3 2 2 3
5 4 2 1 2 3 6 6 6 5 2 10 13 16 16 19 19 24 31 32 30 28 26 23 21 19 17 16 16 15 14 12 11 10 9 8 7 7 6 4 3 2 1 1 2 2 3 4 4
5 4 3 1 2 1 6 4 5 6 5 12 15 12 13 18 24 24 29 31 32 31 29 27 24 22 19 16 15 15 13 11 11 10 9 8 8 7 6 5 5 4 3 4 4 5 5 6 8
8 3 2 2 2 2 6 2 5 6 8 13 11 10 12 16 23 25 31 31 35 34 32 32 28 26 24 20 17 17 16 14 10 10 9 8 9 8 7 7 7 6 5 6 7 8 9 10 11
8 4 4 3 5 1 3 7 6 7 12 12 10 9 10 10 23 29 32 34 35 35 35 33 33 30 26 25 22 19 19 18 14 11 10 10 9 10 10 9 9 9 10 10 10 11 13 14 14
1 5 4 2 6 3 3 6 5 8 8 10 9 9 10 10 15 31 35 36 34 38 37 35 34 34 30 27 23 21 18 17 15 15 13 12 10 9 11 11 10 10 11 11 12 13 15 17 17
6 4 3 5 6 4 5 7 3 8 8 11 9 9 8 9 12 28 33 33 34 35 37 36 34 32 31 30 27 22 21 21 19 18 15 12 12 12 12 11 13 13 13 13 14 15 14 16 17
6 5 6 3 3 5 8 5 9 7 5 8 9 9 9 10 9 12 19 27 26 31 36 36 35 33 31 29 25 22 23 22 20 18 17 16 16 16 14 14 13 13 14 13 12 14 14 18 16
5 7 5 1 1 3 4 9 5 5 6 8 10 9 11 6 6 11 15 17 22 26 29 32 35 34 34 32 29 24 22 21 19 17 16 15 15 14 15 15 15 15 14 15 14 15 14 15 17
5 6 5 4 4 2 5 6 4 8 5 4 6 6 5 11 10 8 15 16 17 17 20 25 30 34 35 35 29 19 15 17 17 18 16 16 15 13 12 13 12 11 13 14 15 17 15 12 14
9 7 8 7 5 5 4 5 6 8 9 7 9 8 9 9 6 5 11 13 14 16 17 17 19 29 34 35 31 25 18 16 16 15 13 10 9 8 7 7 7 6 6 6 5 7 7 7 10
8 7 9 7 4 5 3 2 7 2 8 9 13 10 9 9 9 8 11 10 10 11 14 17 19 20 31 34 30 23 23 19 14 11 8 8 8 8 6 6 4 3 2 1 5 3 4 6 8
8 7 6 5 3 3 6 7 5 6 9 9 4 10 10 8 7 8 10 10 8 8 10 14 20 21 23 33 32 23 22 17 14 13 12 11 10 9 6 3 2 1 2 4 6 4 5 5 5
5 9 2 0 1 6 2 3 8 5 8 7 12 11 8 8 8 8 9 10 9 7 9 12 17 20 24 28 30 25 22 18 17 18 17 14 9 6 2 4 3 3 2 2 2 2 3 4 5
6 9 6 7 4 3 3 6 6 7 5 7 8 10 9 9 7 8 11 12 12 11 12 16 20 22 25 28 27 25 20 19 16 17 17 14 12 9 9 8 8 9 7 7 6 6 7 6 7
6 5 6 7 3 3 5 5 9 4 7 4 7 11 12 9 8 8 11 14 14 14 15 20 24 26 28 30 28 27 23 22 21 20 18 17 16 16 14 12 11 9 9 8 7 7 9 9 9
7 8 3 2 5 4 4 4 5 7 12 9 9 13 9 8 8 7 12 16 16 17 19 21 25 28 29 30 29 28 26 24 23 22 22 20 18 15 13 11 10 9 9 8 8 8 9 10 11
4 4 2 5 4 5 1 6 8 13 17 14 11 10 12 11 10 9 13 18 19 20 21 23 26 28 29 30 30 30 29 27 26 25 22 20 17 14 12 10 9 8 8 8 8 10 11 12 13
1 7 6 7 7 1 3 6 3 7 7 9 10 11 8 11 10 9 17 21 22 23 24 26 27 29 30 32 33 33 31 29 27 24 20 17 15 13 11 9 7 7 7 8 9 11 12 13 15
Wind_Direction
317 325 303 57 53 62 267 179 162 146 53 345 50 90 112 52 50 178 154 159 154 147 144 141 135 128 123 116 103 90 99 93 90 94 97 90 85 87 89 89 89 88 86 79 85 86 87 93 90
317 328 321 86 95 85 263 318 136 149 133 122 92 95 56 60 59 114 123 153 154 153 150 141 133 125 128 118 103 93 106 102 99 98 99 95 89 90 89 89 87 89 88 88 87 89 89 90 79
314 297 84 101 118 191 171 206 155 112 158 118 94 59 113 119 118 135 157 154 151 148 145 141 139 131 130 123 109 103 109 110 105 101 95 99 94 88 91 91 91 93 90 88 87 87 87 82 73
314 339 26 94 229 205 159 189 167 127 71 74 110 65 46 247 127 147 146 151 152 148 142 140 140 134 134 128 113 108 118 117 115 109 101 100 93 82 97 93 88 89 90 89 89 94 97 87 77
341 45 61 55 269 30 121 187 177 118 96 98 109 124 68 97 136 142 150 152 151 149 147 144 139 130 136 129 118 113 117 127 122 113 111 107 103 90 97 102 97 101 93 92 90 106 108 99 79
35 105 70 208 265 72 155 191 138 104 124 152 83 105 101 141 138 150 152 151 153 150 149 146 143 136 140 136 127 122 122 127 123 119 119 118 112 109 94 104 105 105 96 98 93 101 109 102 84
130 97 187 167 197 182 182 175 142 145 147 146 145 100 129 146 146 152 152 149 153 150 150 150 149 147 143 147 139 133 126 126 127 124 123 124 122 121 111 103 98 98 102 100 97 96 100 98 86
109 97 144 204 192 222 195 125 133 132 148 110 153 156 177 165 154 154 153 149 154 152 151 152 153 155 156 152 150 142 132 126 126 124 123 125 128 127 126 114 107 109 112 109 104 96 91 88 98
88 76 176 199 153 219 201 120 121 24 101 76 343 160 163 158 156 152 150 149 155 158 160 158 157 157 158 158 154 146 139 131 128 127 129 129 132 137 136 132 132 129 143 131 116 109 100 94 96
96 131 212 193 196 184 160 133 148 100 102 30 48 82 149 153 153 150 155 157 164 165 167 168 163 161 162 163 163 157 148 141 138 135 133 136 133 128 143 155 149 124 128 119 162 145 128 100 106
296 203 230 230 184 185 150 131 134 126 224 200 153 144 158 156 155 158 165 169 171 169 169 175 173 169 169 171 171 170 163 155 153 148 148 146 141 143 128 157 156 147 134 111 137 165 163 2 30
326 271 258 273 107 147 154 127 114 183 212 164 160 156 164 167 163 166 168 173 177 176 176 178 180 178 178 180 181 176 175 167 162 166 165 163 166 169 149 147 147 135 136 110 141 201 271 323 324
236 283 299 343 100 166 118 139 161 206 126 144 138 159 171 176 176 175 179 181 180 180 182 184 185 189 186 185 182 182 181 182 175 180 186 189 195 186 186 181 182 184 236 278 293 292 302 311 297
284 244 296 50 109 164 136 153 131 249 117 144 153 175 178 183 182 181 181 186 187 186 186 185 191 194 195 198 196 189 188 193 194 199 202 209 209 205 211 215 224 235 262 274 283 289 294 291 291
222 211 313 232 169 166 131 61 202 192 145 152 165 183 183 193 186 192 192 187 193 195 192 190 191 194 199 201 204 199 196 194 203 213 213 221 219 214 223 231 234 239 253 273 276 279 288 290 290
150 109 167 242 162 189 96 226 233 183 145 174 176 190 191 205 199 201 203 204 202 202 200 198 199 198 198 199 201 200 205 205 206 213 218 225 227 226 227 236 241 247 253 262 274 281 285 286 288
55 182 188 210 197 132 135 235 222 167 168 178 190 195 200 212 218 206 209 211 209 208 206 203 204 204 200 199 198 203 203 208 208 210 218 223 225 239 244 248 252 255 261 268 275 275 281 291 296
164 153 165 185 209 171 169 255 212 182 180 191 195 205 203 208 214 214 215 213 212 210 208 206 205 205 205 208 213 217 218 223 225 224 216 224 228 231 239 247 249 253 261 263 264 275 289 293 302
158 157 183 222 196 142 206 229 215 202 202 210 207 207 208 211 209 192 200 208 203 202 204 205 204 206 203 200 198 206 216 219 221 223 229 233 237 243 243 251 259 258 264 273 277 276 284 297 308
156 172 199 15 101 145 157 244 245 211 226 205 198 202 204 184 173 167 167 170 191 196 199 203 207 207 206 204 203 203 211 222 225 226 225 231 234 238 252 260 267 267 265 269 277 273 278 294 302
216 166 180 183 133 56 116 295 236 251 244 218 237 214 193 187 181 180 171 171 177 185 196 202 208 209 206 206 203 198 207 223 223 229 234 235 239 245 250 259 268 268 271 260 274 275 270 288 304
213 195 168 146 134 191 168 255 242 227 229 215 215 204 203 191 185 179 180 173 183 196 201 201 198 208 207 204 203 194 200 216 224 234 234 225 235 246 244 255 261 266 270 286 293 324 326 311 311
217 151 159 161 152 124 210 136 263 140 235 233 218 205 205 194 180 174 184 182 195 208 218 214 206 198 206 205 210 207 200 202 213 211 202 183 187 198 209 223 238 215 242 179 295 324 339 337 324
145 96 54 61 99 245 204 167 257 193 209 221 193 206 199 186 163 161 172 176 188 206 220 217 207 199 196 203 205 214 193 187 182 170 162 156 148 135 126 120 130 136 250 300 305 308 314 315 321
183 148 118 203 213 220 123 157 244 250 238 223 209 196 177 171 165 163 165 166 170 182 195 191 182 177 183 191 197 201 180 177 176 164 162 154 146 125 133 221 189 166 113 94 57 43 33 21 6
197 170 149 182 193 206 105 226 245 231 256 246 224 174 155 167 167 172 173 171 166 167 170 166 164 157 167 176 174 172 184 171 178 161 155 150 155 155 141 129 114 103 96 84 74 65 50 34 19
198 192 154 98 14 67 207 288 302 252 273 199 174 162 174 173 169 168 170 170 164 164 167 161 153 148 149 151 154 156 162 161 164 152 150 148 140 133 128 121 112 99 87 76 65 55 39 26 19
179 154 107 9 137 230 269 257 224 219 227 210 190 189 168 164 161 153 158 163 162 157 155 157 154 149 147 147 150 149 150 155 153 148 141 137 130 127 121 110 99 91 79 67 56 41 25 15 11
144 180 145 123 158 177 196 256 216 208 213 205 195 179 173 167 163 162 156 163 159 156 154 151 150 148 147 147 145 143 142 144 143 140 136 135 132 127 118 106 94 79 65 55 37 24 11 5 0
275 200 160 197 214 255 163 263 209 224 226 184 187 177 171 167 162 158 159 162 164 161 157 154 150 147 145 144 142 141 143 144 143 139 137 134 129 121 110 100 85 69 51 35 21 14 4 358 355
Height
813 812 810 810 836 843 846 835 824 828 827 821 818 826 839 840 842 855 840 843 846 849 852 854 855 857 858 859 859 859 859 860 862 862 862 862 863 863 863 863 863 864 865 864 864 864 864 864 864
813 812 811 819 845 855 851 830 831 823 824 823 823 831 837 846 837 841 844 845 847 849 852 854 856 857 859 860 861 861 862 863 864 865 865 865 865 866 866 866 866 867 867 867 867 867 867 868 868
814 813 818 832 850 854 849 832 829 821 820 818 827 831 837 843 840 842 844 847 850 852 853 854 857 858 860 861 862 863 864 866 867 867 867 867 868 869 869 869 869 870 870 871 871 871 871 871 870
814 814 820 838 838 827 831 829 823 823 819 820 827 841 837 836 837 841 846 848 851 853 855 857 858 859 860 862 864 865 866 867 869 869 869 870 870 871 872 872 872 873 873 873 873 873 873 873 873
814 820 837 838 830 824 822 822 819 821 822 824 825 843 841 839 838 843 846 849 851 853 855 858 860 861 863 864 866 866 868 869 870 871 871 872 873 873 874 874 875 875 875 875 875 874 875 875 875
820 824 847 846 832 823 820 819 820 822 824 828 834 841 842 839 840 845 847 849 853 854 856 857 860 862 864 866 867 868 869 871 872 872 873 874 875 875 876 876 877 877 877 877 877 877 878 878 878
821 832 843 834 839 829 821 818 822 825 827 826 827 844 842 842 842 845 849 851 855 856 857 858 860 862 864 867 868 870 871 871 872 873 874 875 877 877 878 878 879 879 879 879 880 880 880 880 880
818 826 837 833 841 831 817 817 819 818 824 821 824 842 844 838 842 846 850 852 856 858 860 862 863 865 866 868 870 872 873 873 874 874 875 877 878 879 880 880 880 880 881 881 881 881 881 881 881
812 835 844 829 836 824 816 818 817 816 821 823 824 826 826 836 841 845 850 853 857 858 860 861 863 866 868 870 871 873 874 874 875 876 877 878 879 880 881 882 882 882 882 882 882 882 882 882 882
821 836 830 814 816 818 817 815 818 822 825 828 827 824 828 835 838 843 846 850 854 857 860 862 863 864 867 869 871 873 874 875 876 877 878 879 880 881 882 883 883 883 883 883 883 883 883 883 883
819 828 814 808 808 810 814 819 815 825 828 826 828 828 831 836 839 842 846 848 849 854 858 861 864 865 866 868 870 873 874 876 877 878 880 881 882 882 883 884 884 884 884 884 884 884 884 884 884
826 813 812 805 805 810 813 815 819 817 817 815 819 821 831 834 839 841 844 848 851 853 856 860 862 864 866 868 871 872 874 876 878 879 879 881 882 883 883 884 884 885 885 885 885 885 885 885 884
824 817 812 808 807 811 810 816 817 817 814 817 821 826 829 833 836 840 842 845 849 851 854 858 861 864 867 868 870 872 874 876 878 879 880 881 882 882 883 884 885 885 885 885 885 885 885 885 884
817 815 816 811 811 812 815 816 813 818 817 820 821 827 829 830 831 837 840 843 846 849 852 856 860 862 866 869 871 872 874 876 877 878 880 881 882 883 883 884 884 885 885 885 885 885 884 884 884
818 823 817 815 813 813 814 821 821 815 818 822 823 827 828 829 831 833 835 838 842 846 849 852 856 859 862 866 868 871 872 874 876 878 879 880 881 883 884 884 884 885 885 885 885 885 884 884 883
820 827 835 817 816 814 816 835 817 819 818 823 824 828 827 828 828 830 833 836 839 842 846 850 853 856 859 863 866 869 871 873 874 877 878 879 879 880 881 882 883 883 884 884 884 884 883 882 881
823 839 833 822 817 816 819 827 814 818 820 823 825 826 825 828 828 826 829 832 835 838 841 846 850 854 856 860 864 867 869 871 873 874 876 878 879 880 881 881 882 882 882 883 883 882 881 880 879
832 832 829 829 820 821 825 824 816 817 820 821 822 823 824 825 822 823 826 828 831 834 837 841 846 851 854 857 861 865 866 868 871 872 874 876 877 878 878 878 879 879 879 879 879 880 880 878 877
818 822 824 819 815 820 828 822 819 816 818 822 820 820 821 822 818 820 822 825 827 830 833 837 840 845 850 853 857 861 863 864 867 869 872 873 875 876 876 876 876 877 878 878 878 877 877 875 875
814 822 826 824 818 821 828 825 818 817 816 816 814 816 816 818 818 818 820 822 824 828 831 834 837 840 845 848 853 858 860 863 865 866 867 870 871 873 874 874 874 873 874 875 875 875 874 872 872
818 820 829 820 823 822 829 832 821 813 813 811 812 809 812 813 815 818 818 818 822 826 829 830 834 835 839 843 849 853 858 862 863 865 865 866 868 868 870 871 872 871 871 872 873 873 872 871 871
821 809 815 826 830 839 825 848 828 816 813 812 810 811 810 812 813 814 816 816 817 822 824 828 830 832 835 840 844 847 852 857 859 862 864 865 866 868 868 869 869 870 869 870 869 871 870 870 870
808 807 814 825 828 829 832 841 824 818 816 812 807 809 809 808 809 812 815 815 816 818 822 823 826 828 831 836 840 844 847 851 856 860 862 864 865 866 866 867 868 868 868 868 868 868 868 868 869
805 812 821 828 834 842 830 832 823 820 806 795 800 804 804 808 810 813 814 815 816 817 819 820 821 823 827 832 836 841 845 848 852 857 860 863 864 864 865 866 866 867 867 868 867 866 865 866 867
799 807 839 843 851 839 836 838 809 799 796 792 791 796 802 807 809 811 813 814 814 816 818 819 820 820 823 828 833 837 841 845 849 851 855 860 865 865 865 866 866 866 866 866 867 866 865 864 865
805 799 831 846 853 834 836 830 805 792 788 788 788 791 800 806 807 809 810 812 812 814 818 818 819 819 822 826 829 833 840 844 849 852 852 856 859 864 864 866 866 866 866 867 867 866 866 866 865
800 805 802 831 892 848 826 814 797 790 788 786 792 794 797 803 806 808 811 813 814 816 819 818 817 819 821 824 828 832 838 844 848 850 853 856 859 862 863 864 865 866 866 866 867 867 866 865 864
787 790 808 822 847 845 822 820 804 795 786 785 792 792 797 801 806 808 811 813 815 816 818 820 820 820 821 823 829 833 838 845 849 851 852 857 860 862 864 865 866 866 865 866 866 866 866 864 863
793 795 795 804 818 823 839 807 783 773 770 776 783 788 792 798 802 806 808 813 815 816 817 819 821 822 823 825 829 834 839 845 850 852 855 856 858 860 861 863 865 866 865 864 864 864 864 863 862
782 781 787 792 810 818 819 797 765 771 769 773 781 784 792 794 799 803 806 811 814 815 816 818 820 822 826 828 830 834 839 845 849 851 854 857 859 861 860 862 863 864 864 864 862 861 861 860 858